Zurück zum Katalog

FENGYUN 1C DEB

AktivSSO
NORAD 35201·DEBRIS·🇨🇳 China

Gestartet May 10, 1999 von Taiyuan Satellite Launch Center

Loading…

Nächste Überflüge (nächste 24 Stunden)

TLE

AktuellSource: Space-Track

Epoche: Sep 14, 2026, 21:43 UTC

1 35201U 99025DPH 26257.90530179  .00000112  00000-0  85910-4 0  9993
2 35201  98.7074 263.5607 0006730 178.4359 298.2531 14.11147267909147

Verfolge FENGYUN 1C DEB in Echtzeit mit AllMySat

Download on the App Store